Weather History for Ozark, AL

Change the Weather History Date:

Monday, November 5, 2012

  Actual Average Record
Temperature  
Mean Temperature 60 °F -  
Max Temperature 72 °F 70 °F 80 °F (2003)
Min Temperature 47 °F 48 °F 35 °F (1999)
Degree Days  
Heating Degree Days 6    
Growing Degree Days 10 (Base 50)    
Moisture  
Dew Point 45 °F    
Average Humidity 66    
Maximum Humidity 91    
Minimum Humidity 26    
Precipitation  
Precipitation 0.05 in - - ()
Sea Level Pressure  
Sea Level Pressure 30.00 in    
Wind  
Wind Speed 5 mph (North)    
Max Wind Speed 9 mph    
Max Gust Speed -    
Visibility 10 miles    
Events Rain    
Averages and records for this station are not official NWS values.
T = Trace of Precipitation, MM = Missing Value Source: NWS Daily Summary

Daily Weather History Graph

Daily Weather History Graph

Search for Another Location

Airport:

Trip Planner

Search our weather history database for the weather conditions in past years. The results will help you decide how hot, cold, wet, or windy it might be!

Date:

Astronomy

Nov. 05, 2012 Rise Set
Actual Time 6:02 AM CST 4:50 PM CST
Civil Twilight 5:36 AM CST 5:15 PM CST
Nautical Twilight 5:08 AM CST 5:44 PM CST
Astronomical Twilight 4:39 AM CST 6:12 PM CST
Moon 10:26 PM CST (11/5) 11:20 AM CST (11/5)
Length of Visible Light 11h 38m
Length of Day
10h 48m
Waning Gibbous, 62% of the Moon is Illuminated
Nov 5
Waning Gibbous
Nov 6
Last Quarter
Nov 13
New
Nov 20
First Quarter
Nov 28
Full

Hourly Weather History & Observations

Time (CST) Temp. Dew Point Humidity Pressure Visibility Wind Dir Wind Speed Gust Speed Precip Events Conditions
12:55 AM 56.1 °F 53.1 °F 89% 30.04 in 10.0 mi NNW 6.9 mph - N/A   Clear
1:55 AM 54.5 °F 50.9 °F 88% 30.04 in 10.0 mi NNW 5.8 mph - N/A   Clear
2:55 AM 52.2 °F 49.1 °F 89% 30.04 in 10.0 mi NNW 3.5 mph - N/A   Clear
3:55 AM 50.7 °F 47.8 °F 90% 30.04 in 10.0 mi North 6.9 mph - N/A   Clear
4:55 AM 49.3 °F 44.8 °F 84% 30.05 in 10.0 mi North 5.8 mph - N/A   Clear
5:55 AM 47.5 °F 42.8 °F 84% 30.06 in 10.0 mi Calm Calm - N/A   Clear
6:55 AM 47.3 °F 44.8 °F 91% 30.09 in 10.0 mi NNW 4.6 mph - N/A   Clear
7:55 AM 51.6 °F 42.4 °F 71% 30.09 in 10.0 mi NE 8.1 mph - N/A   Clear
8:55 AM 57.0 °F 40.8 °F 55% 30.08 in 10.0 mi NE 4.6 mph - N/A   Clear
9:55 AM 62.4 °F 33.4 °F 34% 30.07 in 10.0 mi ENE 9.2 mph - N/A   Clear
10:55 AM 66.2 °F 34.7 °F 31% 30.04 in 10.0 mi NE 5.8 mph - N/A   Clear
11:55 AM 68.9 °F 34.9 °F 29% 30.01 in 10.0 mi ENE 6.9 mph - N/A   Clear
12:55 PM 70.7 °F 34.5 °F 26% 29.98 in 10.0 mi Calm Calm - N/A   Clear
1:55 PM 72.0 °F 35.1 °F 26% 29.96 in 10.0 mi East 5.8 mph - N/A   Clear
2:55 PM 71.8 °F 34.7 °F 26% 29.96 in 10.0 mi SSW 3.5 mph - N/A   Clear
3:55 PM 69.3 °F 37.6 °F 31% 29.96 in 10.0 mi WNW 3.5 mph - N/A   Scattered Clouds
4:55 PM 66.0 °F 41.7 °F 41% 29.98 in 10.0 mi WNW 4.6 mph - N/A   Overcast
5:55 PM 64.0 °F 43.7 °F 48% 29.99 in 10.0 mi WNW 4.6 mph - N/A   Overcast
6:13 PM 62.6 °F 44.6 °F 52% 30.01 in 10.0 mi WNW 9.2 mph - N/A   Light Drizzle
6:55 PM 57.7 °F 50.4 °F 76% 29.98 in 10.0 mi East 6.9 mph - 0.03 in Rain Light Rain
7:01 PM 57.2 °F 51.8 °F 82% 29.97 in 10.0 mi ENE 6.9 mph - N/A   Mostly Cloudy
7:55 PM 55.8 °F 51.6 °F 86% 29.95 in 10.0 mi East 4.6 mph - 0.00 in   Overcast
8:34 PM 57.2 °F 51.8 °F 82% 29.95 in 10.0 mi Calm Calm - N/A Rain Light Rain
8:55 PM 57.6 °F 49.6 °F 75% 29.95 in 10.0 mi NE 3.5 mph - 0.00 in Rain Light Rain
9:02 PM 57.2 °F 51.8 °F 82% 29.95 in 10.0 mi Calm Calm - N/A   Overcast
9:55 PM 56.3 °F 51.6 °F 84% 29.92 in 10.0 mi Calm Calm - 0.00 in   Overcast
10:55 PM 56.3 °F 51.3 °F 83% 29.90 in 10.0 mi SW 4.6 mph - N/A   Mostly Cloudy
11:12 PM 55.4 °F 51.8 °F 88% 29.91 in 10.0 mi WSW 5.8 mph - N/A Rain Light Rain
11:55 PM 54.9 °F 50.7 °F 86% 29.94 in 10.0 mi NW 8.1 mph - 0.02 in Rain Light Rain